FW7273 Weather Reports


time (UTC)temp
C
wind
direction
speed
KPH
gust
KPH
rain 1hr
cm
rain 24hr
cm
rain mn
cm
humidity
%
barometer
mb
20260906134251 22 123 6.4 11.3 0.00 0.00 0.00 88 1019.9
20260906133307 22 135 1.6 6.4 0.00 0.00 0.00 88 1019.9
20260906132301 22 153 8.0 9.7 0.00 0.00 0.00 88 1019.6
20260906131245 22 242 1.6 4.8 0.00 0.00 0.00 88 1019.5
20260906130247 22 188 3.2 9.7 0.00 0.00 0.00 88 1019.5
20260906125250 22 180 1.6 6.4 0.00 0.00 0.00 89 1019.4
20260906124252 22 203 3.2 4.8 0.00 0.00 0.00 89 1019.4
20260906123254 22 208 3.2 8.0 0.00 0.00 0.00 89 1019.2
20260906122316 22 225 4.8 11.3 0.00 0.00 0.00 89 1019.1
20260906121258 22 208 1.6 3.2 0.00 0.00 0.00 90 1019.1
20260906120300 22 183 8.0 11.3 0.00 0.00 0.00 89 1019.1
20260906115322 22 126 4.8 8.0 0.00 0.00 0.00 89 1019.0
20260906114245 22 0.0 0.0 0.00 0.00 0.00 89 1018.9
20260906113307 21 152 4.8 6.4 0.00 0.00 0.00 89 1018.6
20260906112249 21 183 3.2 4.8 0.00 0.00 0.00 89 1018.4
20260906111251 21 203 6.4 8.0 0.00 0.00 0.00 89 1018.2
20260906110328 22 168 3.2 6.4 0.00 0.00 0.00 88 1018.2
20260906105316 22 169 3.2 4.8 0.00 0.00 0.00 88 1018.1
20260906104258 22 178 6.4 6.4 0.00 0.00 0.00 88 1018.1
20260906103300 22 162 1.6 6.4 0.00 0.00 0.00 87 1018.0
20260906102305 22 166 4.8 8.0 0.00 0.00 0.00 87 1018.0
20260906101246 22 181 3.2 8.0 0.00 0.00 0.00 87 1018.0
20260906100309 22 158 4.8 4.8 0.00 0.00 0.00 87 1017.9
20260906095250 22 169 4.8 6.4 0.00 0.00 0.00 86 1017.9
20260906094253 23 158 1.6 6.4 0.00 0.00 0.00 86 1017.7
20260906093255 23 244 4.8 8.0 0.00 0.00 0.00 85 1017.6
20260906092257 23 238 1.6 6.4 0.00 0.00 0.00 85 1017.4
20260906091319 23 0.0 0.0 0.00 0.00 0.00 85 1017.6
20260906090301 23 214 3.2 4.8 0.00 0.00 0.00 85 1017.6
20260906085307 24 155 6.4 11.3 0.00 0.00 0.00 84 1017.5
20260906084248 24 190 4.8 8.0 0.00 0.00 0.00 84 1017.6
20260906083250 25 0.0 0.0 0.00 0.00 0.00 84 1017.4
20260906082246 25 208 3.2 6.4 0.00 0.00 0.00 83 1017.4
20260906081254 25 175 3.2 6.4 0.00 0.00 0.00 83 1017.4
20260906080256 25 171 4.8 6.4 0.00 0.00 0.00 83 1017.4
20260906075258 25 180 1.6 4.8 0.00 0.00 0.00 81 1017.4
20260906074301 25 160 4.8 6.4 0.00 0.00 0.00 80 1017.4
20260906073307 26 143 3.2 8.0 0.00 0.00 0.00 80 1017.4
20260906072247 26 261 3.2 6.4 0.00 0.00 0.00 80 1017.4
20260906071309 26 241 3.2 8.0 0.00 0.00 0.00 80 1017.4
20260906070332 26 0.0 0.0 0.00 0.00 0.00 80 1017.4
20260906065253 26 0.0 0.0 0.00 0.00 0.00 80 1017.5
20260906064255 26 225 0.0 1.6 0.00 0.00 0.00 80 1017.4
20260906063257 26 90 0.0 3.2 0.00 0.00 0.00 80 1017.4
20260906062300 26 293 0.0 1.6 0.00 0.00 0.00 80 1017.4
20260906061316 27 261 1.6 6.4 0.00 0.00 0.00 80 1017.4
20260906060246 27 180 1.6 4.8 0.00 0.00 0.00 80 1017.4
20260906055328 27 256 4.8 8.0 0.00 0.00 0.00 80 1017.2
20260906054250 27 203 1.6 3.2 0.00 0.00 0.00 80 1017.4
20260906053249 27 232 3.2 4.8 0.00 0.00 0.00 80 1017.4
20260906052309 27 0.0 0.0 0.00 0.00 0.00 80 1017.2
20260906051250 28 315 1.6 3.2 0.00 0.00 0.00 79 1017.1
20260906050252 28 250 6.4 11.3 0.00 0.00 0.00 79 1017.0
20260906045255 28 237 3.2 6.4 0.00 0.00 0.00 78 1016.9
20260906044256 28 0.0 0.0 0.00 0.00 0.00 77 1016.9
20260906043259 28 237 3.2 6.4 0.00 0.00 0.00 77 1016.7
20260906042321 28 270 0.0 3.2 0.00 0.00 0.00 76 1016.7
20260906041303 29 203 3.2 4.8 0.00 0.00 0.00 76 1016.5
20260906040307 29 210 3.2 8.0 0.00 0.00 0.00 75 1016.5
20260906035249 29 237 4.8 9.7 0.00 0.00 0.00 75 1016.5
20260906034252 29 180 1.6 4.8 0.00 0.00 0.00 74 1016.4
20260906033253 30 201 4.8 8.0 0.00 0.00 0.00 74 1016.2
20260906032249 30 164 1.6 3.2 0.00 0.00 0.00 73 1016.2
20260906031245 30 336 1.6 4.8 0.00 0.00 0.00 73 1016.2
20260906030259 30 189 4.8 8.0 0.00 0.00 0.00 72 1016.1
20260906025301 30 197 4.8 8.0 0.00 0.00 0.00 71 1016.0
20260906024306 30 168 3.2 8.0 0.00 0.00 0.00 71 1015.9
20260906023247 30 257 3.2 8.0 0.00 0.00 0.00 70 1015.7
20260906022310 30 212 4.8 8.0 0.00 0.00 0.00 69 1015.6
20260906021251 30 3.2 3.2 0.00 0.00 0.00 68 1015.5
20260906020253 30 197 4.8 8.0 0.00 0.00 0.00 66 1015.4
20260906015336 30 180 3.2 3.2 0.00 0.00 0.00 64 1015.3
20260906014317 30 139 3.2 4.8 0.00 0.00 0.00 63 1015.1
20260906013259 -17 0.0 0.0 0.00 0.00 0.00 1015.0
20260906012301 -17 0.0 0.0 0.00 0.00 0.00 1014.9
20260906011245 31 189 3.2 3.2 0.00 0.00 0.00 62 1014.8
20260906010247 31 158 1.6 3.2 0.00 0.00 0.00 61 1014.7
20260906005250 31 218 3.2 4.8 0.00 0.00 0.00 60 1014.6
20260906004306 31 164 3.2 3.2 0.00 0.00 0.00 58 1014.6
20260906003253 32 154 3.2 4.8 0.00 0.00 0.00 58 1014.6
20260906002255 33 186 1.6 3.2 0.00 0.00 0.00 55 1014.6
20260906001257 33 203 0.0 1.6 0.00 18.75 0.00 52 1014.6
20260906000320 33 0.0 0.0 0.00 18.75 0.00 52 1014.6
20260905235306 33 254 1.6 3.2 0.00 18.75 0.00 52 1014.6
20260905234246 33 270 1.6 4.8 0.00 18.75 0.00 54 1014.6
20260905233304 33 232 1.6 1.6 0.00 18.75 0.00 55 1014.5
20260905232305 33 289 3.2 6.4 0.00 18.75 0.00 54 1014.6
20260905231246 34 0.0 0.0 0.00 18.75 0.00 46 1014.6
20260905230248 34 0.0 0.0 0.00 18.75 0.00 46 1014.7
20260905225251 34 236 1.6 1.6 0.00 18.75 0.00 47 1014.8
20260905224253 33 203 6.4 11.3 0.00 18.75 0.00 54 1014.9
20260905223255 35 192 4.8 6.4 0.00 18.75 0.00 50 1014.8
20260905222251 -17 0.0 0.0 0.00 18.75 0.00 1014.6
20260905221308 36 338 6.4 8.0 0.00 18.75 0.00 45 1014.5
20260905220301 37 140 3.2 6.4 0.00 18.75 0.00 43 1014.5
20260905215246 37 94 8.0 11.3 0.00 18.75 0.00 43 1014.4
20260905214248 38 150 8.0 9.7 0.00 18.75 0.00 40 1014.3
20260905213250 37 135 6.4 8.0 0.00 18.75 0.00 45 1014.4
20260905212313 37 187 11.3 12.9 0.00 18.75 0.00 45 1014.4
20260905211255 38 165 9.7 12.9 0.00 18.75 0.00 42 1014.6
20260905210257 40 148 9.7 12.9 0.00 18.75 0.00 40 1014.6
20260905205319 40 203 8.0 11.3 0.00 18.75 0.00 40 1014.6
20260905204301 39 175 9.7 11.3 0.00 18.75 0.00 41 1014.8
20260905203245 38 171 9.7 16.1 0.00 18.75 0.00 41 1014.8
20260905202247 38 150 4.8 9.7 0.00 18.75 0.00 41 1014.8
20260905201249 39 145 6.4 11.3 0.00 18.75 0.00 40 1014.9
20260905200251 40 131 6.4 8.0 0.00 18.75 0.00 39 1014.9
20260905195254 41 71 8.0 12.9 0.00 18.75 0.00 38 1014.9
20260905194250 40 3.2 6.4 0.00 18.75 0.00 41 1015.1
20260905193246 -17 123 8.0 9.7 0.00 18.75 0.00 1015.3
20260905192340 39 92 8.0 11.3 0.00 18.75 0.00 42 1015.6
20260905191342 -17 0.0 0.0 0.00 18.75 0.00 1015.7
20260905190249 40 75 8.0 9.7 0.00 18.75 0.00 40 1015.6
20260905185248 -17 108 6.4 8.0 0.00 18.75 0.00 1015.6
20260905184250 -17 68 9.7 9.7 0.00 18.75 0.00 1016.1
20260905183253 -17 106 9.7 9.7 0.00 18.75 0.00 1016.1
20260905182255 39 91 8.0 9.7 0.00 18.75 0.00 45 1016.4
20260905181257 38 22 3.2 6.4 0.00 18.75 0.00 48 1016.4
20260905180258 38 102 8.0 9.7 0.00 18.75 0.00 48 1016.4
20260905175301 -17 158 3.2 3.2 0.00 18.75 0.00 1016.4
20260905174245 -17 0.0 0.0 0.00 18.75 0.00 1016.4
20260905173247 37 121 4.8 6.4 0.00 18.75 0.00 51 1016.4
20260905172330 37 169 3.2 4.8 0.00 18.75 0.00 52 1016.7
20260905171251 37 58 4.8 6.4 0.00 18.75 0.00 52 1016.7
20260905170248 37 343 3.2 4.8 0.00 18.75 0.00 53 1016.8
20260905165256 36 57 8.0 9.7 0.00 18.75 0.00 54 1016.9
20260905164258 36 203 1.6 3.2 0.00 18.75 0.00 55 1017.1
20260905163301 35 101 6.4 9.7 0.00 18.75 0.00 56 1017.2
20260905162322 35 98 4.8 6.4 0.00 18.75 0.00 56 1017.2
20260905161246 35 81 6.4 8.0 0.00 18.75 0.00 56 1017.4
20260905160249 35 135 3.2 4.8 0.00 18.75 0.00 57 1017.4
20260905155331 34 90 3.2 3.2 0.00 18.75 0.00 59 1017.4
20260905154255 34 82 4.8 6.4 0.00 18.75 0.00 59 1017.4
20260905153255 34 80 6.4 8.0 0.00 18.75 0.00 58 1017.4
20260905152257 33 90 4.8 8.0 0.00 18.75 0.00 60 1017.4
20260905151300 33 103 3.2 4.8 0.00 18.75 0.00 60 1017.4
20260905150302 32 53 6.4 8.0 0.00 18.75 0.00 62 1017.4
20260905145246 32 45 6.4 8.0 0.00 18.75 0.00 63 1017.2
20260905144248 32 60 4.8 8.0 0.00 18.75 0.00 64 1017.2
20260905143310 31 111 4.8 6.4 0.00 18.75 0.00 66 1017.2
20260905142246 31 81 1.6 4.8 0.00 18.75 0.00 69 1017.4
20260905141254 30 32 4.8 6.4 0.00 18.75 0.00 71 1017.4
20260905140256 30 61 1.6 3.2 0.00 18.75 0.00 71 1017.3
20260905135258 30 74 3.2 4.8 0.00 18.75 0.00 71 1017.2